GSAT0210 (GALILEO 13)

Last updated on July 14, 2020, 5:23 a.m. UTC

1 41550U 16030B   20195.59346454 -.00000028  00000-0  00000-0 0  9993
2 41550  56.2721 281.2403 0003328 252.7270 107.2910  1.70475515 25766
UTC
Height (km)
Latitude
Longitude
Inclination
Orbital Period
UTC large
Height (km)
Speed (km/s)
/
Latitude / Longitude
Inclination (degrees)
Orbital Period (minutes)
Azimuth
Elevation
Range (km)
Doppler Factor
iOS Compass Heading
iOS Angle

Next 30 passes for location: Hong Kong

Rise time Rise Azimuth (degrees) Set time Set Azimuth (degrees) Duration Max altitude (degrees)

No matching passes for this satellites